DELTA 1 DEB, 7127

Orbit data source: Space-Track

DELTA 1 DEB, 7127 is space debris in SSO originally from a launch on Tue, 06 Nov 1973 UTC launched from the Air Force Western Test Range (AFWTR). Debris objects in space refer to the collection of defunct objects orbiting the Earth. Examples of debris include non-operational satellites, rocket bodies, and fragments generated from explosions, collisions, or faulty payload assembly.

Loading next visibility...
Identifier
7127, 1973-086CR
Orbit
SSO
Country
Flag of USUS
Related business
Manufacturer
Unknown
Mission
Spacecraft
Bus & Motor
Unknown
Mass
Unknown
Launch date (UTC)
1973-11-06 (53 years ago)
Launch vehicle
Unknown
Launch site
Air Force Western Test Range (AFWTR)
Object type
Payload
Rocket body
Debris
Shape & HBR
Unknown shape, 0.2 m
Radar Cross Section
Medium (>0.1 m² and <1 m²)

Expand to show TLE details & history
Last TLE update: 1 day ago

TLE from 1 day ago
0 DELTA 1 DEB
1 07127U 73086CR  26206.01916527  .00000073  00000-0  12522-2 0  9992
2 07127 101.8854 219.4089 0264415 239.9091 143.3118 12.00865259309667
Epoch: 2026-07-25T00:27Z
TLE epoch observation values (Epoch: 2026-07-25T00:27:35.879Z)
Latitude
24.4371°
Longitude
-95.69024°
Altitude
1,852.351 km
Speed
6.887 km/s
True Right ascension
14h 15m 47s
True Declination
24° 19' 30"
Sunlit
Object was in daylight at epoch
Visualization orbit readout
Latitude
Unknown
Longitude
Unknown
Altitude
Unknown
Speed
Unknown
Apparent Right ascension
Unknown
Apparent Declination
Unknown
Sunlit
N/A
Visualization observer readout
Local Sidereal Time
00:10:52
Azimuth
Unknown
Elevation
Unknown
Doppler factor
Unknown
Orbital elements
Apogee altitude
1,887.532 km
Perigee altitude
1,461.679 km
Semi-major axis
8,052.743 km
Eccentricity
0.02644
Inclination
101.8854°
RAAN
219.4089°
Arg. of periapsis
239.9091°
True anomaly
145.07502°
Mean anomaly
143.3118°
Eccentric anomaly
144.19804°
Mean motion
3.0035 °/min
Orbital period
119.86 mins
BSTAR
0.0012522
Loading maneuver chart data...
Computing Atmospheric mass density...
Loading historical data...
Loading historical data...
Loading historical data...
Loading historical data...
Loading historical data...
Loading historical data...
Loading historical data...

Documentation

Showing up to 5 results
|